South Lake Tahoe, CA

6:43 AM PDT on July 22, 2017 (GMT -0700)
Lake Tahoe

Weather History for KTVL - December, 2014

Change the Weather History Date:

Wednesday, December 24, 2014

  Actual Average Record
Temperature  
Mean Temperature 39 °F 29 °F  
Max Temperature 50 °F 43 °F 50 °F (2010)
Min Temperature 27 °F 16 °F -13 °F (1970)
Degree Days  
Heating Degree Days 26 36  
Month to date heating degree days 629 840  
Since 1 July heating degree days 2067 2933  
Cooling Degree Days 0 0  
Month to date cooling degree days 0 0  
Year to date cooling degree days 99 31  
Moisture  
Dew Point 25 °F    
Average Humidity 59    
Maximum Humidity 85    
Minimum Humidity 32    
Precipitation  
Precipitation 0.41 in - 3.00 in (1964)
Month to date precipitation 2.41  
Year to date precipitation 20.24  
Sea Level Pressure  
Sea Level Pressure 29.85 in    
Wind  
Wind Speed 9 mph (SSW)    
Max Wind Speed 24 mph    
Max Gust Speed 36 mph    
Visibility 5 miles    
Events Rain , Snow    
T = Trace of Precipitation, MM = Missing Value Source: NWS Daily Summary

Daily Weather History Graph

Daily Weather History Graph

Search for Another Location

Airport or City:

Trip Planner

Search our weather history database for the weather conditions in past years. The results will help you decide how hot, cold, wet, or windy it might be!

Date:

Astronomy

Dec. 24, 2014 Rise Set
Actual Time 7:16 AM PST 4:43 PM PST
Civil Twilight 6:46 AM PST 5:13 PM PST
Nautical Twilight 6:12 AM PST 5:46 PM PST
Astronomical Twilight 5:40 AM PST 6:19 PM PST
Moon 9:12 AM PST (12/24) 8:11 PM PST (12/24)
Length of Visible Light 10h 26m
Length of Day
9h 26m
Waxing Crescent, 10% of the Moon is Illuminated
Dec 24
Waxing Crescent
Dec 28
First Quarter
Jan 4
Full
Jan 13
Last Quarter
Jan 20
New

Hourly Weather History & Observations

Time (PST) Temp. Windchill Dew Point Humidity Pressure Visibility Wind Dir Wind Speed Gust Speed Precip Events Conditions
12:53 AM 28.9 °F - 24.1 °F 82% 30.17 in 10.0 mi Calm Calm - N/A   Clear
1:53 AM 28.0 °F - 23.0 °F 81% 30.16 in 10.0 mi Calm Calm - N/A   Clear
2:53 AM 28.9 °F 22.8 °F 23.0 °F 78% 30.14 in 10.0 mi South 5.8 mph - N/A   Clear
3:53 AM 28.9 °F 20.4 °F 23.0 °F 78% 30.14 in 10.0 mi South 9.2 mph - N/A   Clear
4:53 AM 30.9 °F 25.2 °F 24.1 °F 76% 30.13 in 10.0 mi SSW 5.8 mph - N/A   Clear
5:53 AM 30.0 °F - 23.0 °F 75% 30.12 in 10.0 mi Calm Calm - N/A   Clear
6:53 AM 35.1 °F - 24.1 °F 64% 30.07 in 10.0 mi Calm Calm - N/A   Clear
7:53 AM 46.0 °F 40.2 °F 21.9 °F 39% 29.99 in 10.0 mi South 12.7 mph 17.3 mph N/A   Clear
8:53 AM 50.0 °F - 21.0 °F 32% 29.97 in 10.0 mi SSW 13.8 mph 26.5 mph N/A   Clear
9:53 AM 50.0 °F - 23.0 °F 35% 29.98 in 10.0 mi SSW 19.6 mph 32.2 mph N/A   Mostly Cloudy
10:53 AM 46.9 °F - 24.1 °F 41% 29.97 in 10.0 mi SSW 19.6 mph 28.8 mph 0.00 in Rain Light Rain
11:53 AM 44.1 °F 38.1 °F 28.9 °F 55% 29.92 in 10.0 mi SSW 11.5 mph 19.6 mph 0.02 in Rain Light Rain
12:53 PM 42.1 °F 33.9 °F 30.0 °F 62% 29.84 in 4.0 mi SSW 17.3 mph 34.5 mph 0.05 in Rain Heavy Rain
1:04 PM 41.0 °F 33.9 °F 30.0 °F 65% 29.86 in 10.0 mi SSW 12.7 mph 20.7 mph 0.01 in Rain Light Rain
1:35 PM 39.9 °F 35.1 °F 32.0 °F 73% 29.83 in 4.0 mi Variable 6.9 mph - 0.04 in Rain Rain
1:53 PM 39.9 °F 31.1 °F 30.9 °F 70% 29.76 in 10.0 mi SSW 17.3 mph 34.5 mph 0.05 in Rain Light Rain
2:20 PM 39.0 °F 31.8 °F 30.0 °F 70% 29.77 in 4.0 mi SW 11.5 mph 23.0 mph 0.01 in Rain Light Rain
2:32 PM 37.9 °F 28.9 °F 30.9 °F 76% 29.75 in 2.5 mi South 16.1 mph 26.5 mph 0.02 in Snow Light Snow
2:38 PM 37.0 °F 29.8 °F 30.9 °F 79% 29.75 in 3.0 mi South 10.4 mph 26.5 mph 0.03 in Snow Light Snow
2:47 PM 37.4 °F 32.1 °F 30.2 °F 75% 29.76 in 1.8 mi Variable 6.9 mph 24.2 mph 0.05 in Snow Light Snow
2:48 PM 37.0 °F 31.0 °F 30.9 °F 79% 29.75 in 1.5 mi SW 8.1 mph 24.2 mph 0.06 in Snow Light Snow
2:57 PM 37.0 °F 31.0 °F 30.9 °F 79% 29.76 in 0.8 mi SSW 8.1 mph - 0.03 in Snow Light Snow
3:04 PM 37.0 °F 30.4 °F 30.9 °F 79% 29.76 in 1.0 mi SSW 9.2 mph 16.1 mph 0.04 in Snow Light Snow
3:27 PM 37.0 °F 29.3 °F 30.9 °F 79% 29.74 in 1.8 mi SSW 11.5 mph 25.3 mph 0.07 in Snow Light Snow
3:38 PM 37.0 °F 29.3 °F 30.0 °F 76% 29.74 in 2.5 mi SSW 11.5 mph 20.7 mph 0.08 in Snow Light Snow
3:50 PM 37.4 °F 28.9 °F 30.2 °F 75% 29.72 in 2.0 mi South 13.8 mph 21.9 mph 0.09 in Snow Light Snow
3:53 PM 37.0 °F 30.4 °F 30.0 °F 76% 29.71 in 2.0 mi SW 9.2 mph 24.2 mph 0.09 in Snow Light Snow
4:07 PM 37.0 °F 28.9 °F 30.9 °F 79% 29.72 in 1.5 mi SSW 12.7 mph 21.9 mph 0.02 in Snow Light Snow
4:14 PM 37.9 °F 30.9 °F 30.9 °F 76% 29.72 in 2.0 mi SSW 10.4 mph 36.8 mph 0.02 in Snow Light Snow
4:30 PM 37.0 °F 30.4 °F 30.9 °F 79% 29.72 in 1.2 mi South 9.2 mph 17.3 mph 0.05 in Snow Light Snow
4:37 PM 37.0 °F 31.0 °F 30.9 °F 79% 29.71 in 2.5 mi SW 8.1 mph 20.7 mph 0.06 in Snow Light Snow
4:53 PM 37.0 °F 28.9 °F 28.9 °F 73% 29.70 in 3.0 mi SSW 12.7 mph 25.3 mph 0.06 in Snow Light Snow
5:03 PM 37.0 °F 28.5 °F 27.0 °F 67% 29.72 in 8.0 mi SSW 13.8 mph 25.3 mph 0.00 in Rain Light Rain
5:16 PM 36.0 °F 29.6 °F 28.0 °F 73% 29.73 in 2.5 mi SSW 8.1 mph 19.6 mph 0.00 in Snow Light Snow
5:30 PM 36.0 °F 27.1 °F 26.1 °F 67% 29.73 in 5.0 mi SSW 13.8 mph 20.7 mph 0.01 in Snow Light Snow
5:37 PM 36.0 °F 28.0 °F 24.1 °F 62% 29.74 in 4.0 mi SSW 11.5 mph 26.5 mph 0.01 in Snow Light Snow
5:41 PM 35.1 °F 27.9 °F 24.1 °F 64% 29.75 in 1.5 mi SW 9.2 mph 25.3 mph 0.01 in Snow Light Snow
5:53 PM 33.1 °F 30.0 °F 27.0 °F 78% 29.76 in 0.5 mi Variable 3.5 mph 18.4 mph 0.02 in Snow Snow
5:59 PM 33.1 °F - 28.0 °F 82% 29.77 in 0.5 mi Calm Calm - 0.01 in Snow Snow
6:30 PM 30.9 °F 26.2 °F 25.0 °F 79% 29.82 in 1.0 mi Variable 4.6 mph - 0.04 in Snow Light Snow
6:34 PM 30.9 °F 25.2 °F 25.0 °F 79% 29.83 in 1.8 mi Variable 5.8 mph - 0.04 in Snow Light Snow
6:37 PM 32.0 °F 27.5 °F 23.0 °F 69% 29.82 in 3.0 mi Variable 4.6 mph - 0.04 in Snow Light Snow
6:53 PM 32.0 °F 28.7 °F 19.9 °F 61% 29.81 in 10.0 mi Variable 3.5 mph - 0.04 in   Mostly Cloudy
7:21 PM 30.9 °F 22.8 °F 21.9 °F 69% 29.84 in 2.5 mi NNE 9.2 mph 17.3 mph 0.00 in Snow Light Snow
7:25 PM 30.0 °F 20.0 °F 24.1 °F 79% 29.84 in 0.8 mi NNE 12.7 mph 19.6 mph 0.01 in Snow Light Snow
7:32 PM 28.9 °F 18.6 °F 23.0 °F 78% 29.85 in 0.2 mi NNE 12.7 mph 25.3 mph 0.02 in Snow Heavy Snow
7:46 PM 30.0 °F 20.5 °F 21.9 °F 72% 29.85 in 2.5 mi NNE 11.5 mph 18.4 mph 0.02 in Snow Light Snow
7:48 PM 30.2 °F 21.9 °F 21.2 °F 69% 29.85 in 5.0 mi NNE 9.2 mph 18.4 mph 0.02 in Snow Light Snow
7:53 PM 30.9 °F 20.7 °F 19.0 °F 61% 29.81 in 9.0 mi NNE 13.8 mph 24.2 mph 0.02 in   Mostly Cloudy
8:00 PM 30.0 °F 20.5 °F 17.1 °F 59% 29.87 in 10.0 mi NNE 11.5 mph 24.2 mph N/A   Mostly Cloudy
8:53 PM 30.0 °F 21.1 °F 17.1 °F 59% 29.82 in 10.0 mi North 10.4 mph 18.4 mph N/A   Overcast
9:53 PM 28.0 °F 21.7 °F 17.1 °F 63% 29.84 in 10.0 mi NNE 5.8 mph - N/A   Scattered Clouds
10:53 PM 28.0 °F 21.7 °F 16.0 °F 61% 29.86 in 10.0 mi North 5.8 mph - N/A   Overcast
11:53 PM 28.0 °F 20.8 °F 14.0 °F 56% 29.88 in 10.0 mi NNE 6.9 mph - N/A   Overcast